"Pseudo-MPEC" for P210NVh

Created 2020 May 25 4:07:19 UT using Find_Orb

Click here for an explanation of pseudo-MPECs

 
 Astrometry: 
     P210NVh  C2020 05 23a*WSO.3i:mPW::BQLW\w5qkmvN[Wi?4BnC/efIX@Si5nff@CwA7HF52
     P210NVh  C2020 05 23f*xo?V^9D[-AstrometrygDr.n+N!t=o`)j^redacted;+gclickF52
     P210NVh  C2020 05 23YwiE[h:UDSnhhU02NZ3F\ad+Gu`-?^,st3Nr@v:.RJ@BUmC7TavVF52
     P210NVh KC2020 05 24.Lp;h5yN.MA!NaxiI*mCdjxW3i1tfB\here88RZ(Q/6Xe1Z:L2]uH21
     P210NVh KC2020 05 24P@q7-`H[j)pSe!!Z'2nu^ZX3v/QV)HmkcoLifor:Dbwn;bJ1c^8OH21
     P210NVh KC2020 05 24R4gfFTU_r9.?*Kh0:(/VY#KA'\^explanationeOgqc.]/by?HK2H21
     P210NVh  C2020 05 24.15584 12 46 24.81 -16 16 50.8    ~5O47 21.4 GVNEOCPV06
     P210NVh  C2020 05 24.15698 12 46 24.75 -16 16 47.6    ~5O47 22.2 GVNEOCPV06
     P210NVh  C2020 05 24.15812 12 46 24.71 -16 16 45.2    ~5O47 21.4 GVNEOCPV06
     P210NVh  C2020 05 24.15925 12 46 24.68 -16 16 42.5    ~5O47 21.5 GVNEOCPV06
     P210NVh ^C2020 05 24.35030012 46 17.891-16 09 15.80   ~5O9M 21.49GVNEOCP568
     P210NVh ^C2020 05 24.35126012 46 17.856-16 09 13.52   ~5O9M 21.61GVNEOCP568
     P210NVh ^C2020 05 24.35222412 46 17.819-16 09 11.30   ~5O9M 21.56GVNEOCP568
     P210NVh  C2020 05 25.15635 12 45 51.70 -15 38 06.6    ~5P47 21.5 GVNEOCPV06
     P210NVh  C2020 05 25.15836 12 45 51.62 -15 38 01.9    ~5P47 20.9 GVNEOCPV06
     P210NVh  C2020 05 25.16037 12 45 51.56 -15 37 57.2    ~5P47 21.2 GVNEOCPV06
     P210NVh  C2020 05 25.16238 12 45 51.47 -15 37 52.8    ~5P47 21.3 GVNEOCPV06

Station data:
(568) Mauna Kea  (N19.826116 W155.472200)  US/Hawaii.
(F52) Pan-STARRS 2, Haleakala  (N20.707384 W156.255910)  US/Hawaii. 1.8-m
   Ritchey-Chrétien + CCD.
(H21) Astronomical Research Observatory, Westfield  (N39.483057 W87.968270)
   US/Illinois. 0.76-m f/3.0 astrograph + CCD.
(V06) Catalina Sky Survey-Kuiper  (N32.416847 W110.732550)  US/Arizona.
   Observers T. A. Pruyne, B. M. Africano, E. J. Christensen, G. A. Farneth,
   D. C. Fuls, A. R. Gibbs, A. D. Grauer, H. Gröller, J. A. Johnson, R. A.
   Kowalski, S. M. Larson, G. J. Leonard, D. Rankin, R. L. Seaman, F. C.
   Shelly. 1.55-m reflector + CCD.

Orbital elements:  P210NVh
   Perihelion 2020 Oct 21.461769 +/- 1.93 TT = 11:04:56 (JD 2459143.961769)
Epoch 2020 May 25.0 TT = JDT 2458994.5   Earth MOID: 0.3016   Ma: 0.0973
M 306.30086788 +/- 1.7              (J2000 ecliptic)          AutoNEOCP
n   0.35928339 +/- 0.0107           Peri.  103.07707 +/- 1.0
a   1.95964746 +/- 0.039            Node   226.57082 +/- 0.36
e   0.4828593 +/- 0.0058            Incl.   44.13654 +/- 1.0
P   2.74                   H 19.4   G  0.15   U  9.7  
q 1.01341328 +/- 0.0129    Q 2.90588164 +/- 0.0688
From 17 observations 2020 May 23-25 (45.4 hr); mean residual 0".16
Residuals in arcseconds: 
200523 F52  .04+  .01+    200524 V06  .23+  .14-    200524 568  .14+  .04+    
200523 F52  .01+  .03-    200524 V06  .01-  .40+    200525 V06  .08+  .01-    
200523 F52  .02-  .03+    200524 V06  .03+  .14+    200525 V06  .06-  .04+    
200524 H21  .40-  .06+    200524 V06  .22+  .21+    200525 V06  .08+  .09+    
200524 H21  .13-  .24-    200524 568  .14+  .03+    200525 V06  .20-  .16-    
200524 H21  .16-  .36-    200524 568  .15+  .07+    

Ephemerides (geocentric):
Date (UTC) HH   RA              Dec         delta   r     elong  mag " sig PA
---- -- -- --  -------------   -----------  ------ ------ -----  --- ---- ---
2020 05 25 04  12 45 51.341   -15 37 36.00  .97118 1.8110 131.8 21.7 .190  42
2020 05 25 05  12 45 50.027   -15 35 59.66  .97128 1.8108 131.7 21.7 .204  45
2020 05 25 06  12 45 48.718   -15 34 23.34  .97137 1.8105 131.7 21.7 .220  48
2020 05 25 07  12 45 47.415   -15 32 47.07  .97147 1.8102 131.6 21.7 .236  50
2020 05 25 08  12 45 46.116   -15 31 10.82  .97157 1.8100 131.6 21.7 .253  52
2020 05 25 09  12 45 44.822   -15 29 34.62  .97167 1.8097 131.5 21.7 .271  54
2020 05 25 10  12 45 43.534   -15 27 58.45  .97177 1.8094 131.5 21.7 .290  55
2020 05 25 11  12 45 42.250   -15 26 22.31  .97187 1.8092 131.4 21.7 .309  57
2020 05 25 12  12 45 40.972   -15 24 46.21  .97196 1.8089 131.4 21.7 .330  58
2020 05 25 13  12 45 39.698   -15 23 10.15  .97207 1.8086 131.3 21.7 .351  59
2020 05 25 14  12 45 38.430   -15 21 34.13  .97217 1.8084 131.3 21.7 .374  60
2020 05 25 15  12 45 37.166   -15 19 58.14  .97227 1.8081 131.2 21.7 .397  62
2020 05 25 16  12 45 35.908   -15 18 22.18  .97237 1.8079 131.2 21.7 .421  62
2020 05 25 17  12 45 34.655   -15 16 46.27  .97247 1.8076 131.1 21.7 .445  63
2020 05 25 18  12 45 33.406   -15 15 10.39  .97257 1.8073 131.1 21.7 .471  64
2020 05 25 19  12 45 32.163   -15 13 34.54  .97267 1.8071 131.0 21.7 .497  65
2020 05 25 20  12 45 30.925   -15 11 58.74  .97278 1.8068 131.0 21.8 .524  66
2020 05 25 21  12 45 29.691   -15 10 22.97  .97288 1.8065 130.9 21.8 .552  66
2020 05 25 22  12 45 28.463   -15 08 47.24  .97298 1.8063 130.9 21.8 .580  67
2020 05 25 23  12 45 27.240   -15 07 11.55  .97309 1.8060 130.8 21.8 .609  67
2020 05 26 00  12 45 26.021   -15 05 35.89  .97319 1.8057 130.8 21.8 .639  68
2020 05 26 01  12 45 24.808   -15 04 00.27  .97330 1.8055 130.7 21.8 .670  68
2020 05 26 02  12 45 23.600   -15 02 24.69  .97340 1.8052 130.7 21.8 .702  69
2020 05 26 03  12 45 22.397   -15 00 49.15  .97351 1.8049 130.6 21.8 .734  69
2020 05 26 04  12 45 21.198   -14 59 13.64  .97361 1.8047 130.5 21.8 .767  70
2020 05 26 05  12 45 20.005   -14 57 38.17  .97372 1.8044 130.5 21.8 .801  70
2020 05 26 06  12 45 18.817   -14 56 02.75  .97383 1.8041 130.4 21.8 .835  71
2020 05 26 07  12 45 17.634   -14 54 27.36  .97394 1.8039 130.4 21.8 .870  71
2020 05 26 08  12 45 16.456   -14 52 52.00  .97404 1.8036 130.3 21.8 .906  71
2020 05 26 09  12 45 15.283   -14 51 16.69  .97415 1.8034 130.3 21.8 .943  72
2020 05 26 10  12 45 14.114   -14 49 41.42  .97426 1.8031 130.2 21.8 .980  72
2020 05 26 11  12 45 12.951   -14 48 06.18  .97437 1.8028 130.2 21.8 1.02  72
2020 05 26 12  12 45 11.793   -14 46 30.98  .97448 1.8026 130.1 21.8 1.06  72
2020 05 26 13  12 45 10.640   -14 44 55.83  .97459 1.8023 130.1 21.8 1.10  73
2020 05 26 14  12 45 09.492   -14 43 20.71  .97470 1.8020 130.0 21.8 1.14  73
2020 05 26 15  12 45 08.349   -14 41 45.63  .97481 1.8018 130.0 21.8 1.18  73
2020 05 26 16  12 45 07.210   -14 40 10.59  .97492 1.8015 129.9 21.8 1.22  73
2020 05 26 17  12 45 06.077   -14 38 35.59  .97503 1.8012 129.9 21.8 1.26  74
2020 05 26 18  12 45 04.949   -14 37 00.63  .97514 1.8010 129.8 21.8 1.31  74
2020 05 26 19  12 45 03.826   -14 35 25.71  .97525 1.8007 129.8 21.8 1.35  74
2020 05 26 20  12 45 02.708   -14 33 50.83  .97537 1.8004 129.7 21.8 1.39  74
2020 05 26 21  12 45 01.595   -14 32 15.99  .97548 1.8002 129.7 21.8 1.44  74
2020 05 26 22  12 45 00.487   -14 30 41.19  .97559 1.7999 129.6 21.8 1.49  74
2020 05 26 23  12 44 59.383   -14 29 06.42  .97571 1.7996 129.6 21.8 1.53  75
2020 05 27 00  12 44 58.285   -14 27 31.70  .97582 1.7994 129.5 21.8 1.58  75
2020 05 27 01  12 44 57.192   -14 25 57.02  .97593 1.7991 129.5 21.8 1.63  75
2020 05 27 02  12 44 56.104   -14 24 22.39  .97605 1.7988 129.4 21.8 1.68  75
2020 05 27 03  12 44 55.021   -14 22 47.79  .97616 1.7986 129.4 21.8 1.73  75